sat.trackr.live / text

‹ back to catalog

STARLINK-31015

NORAD 58521 · 2023-191P

PAYLOAD ACTIVE UNKNOWN

§ Identity

Operator
Country
US
Launch date
2023-12-07
Launch site
AFETR
Launch vehicle
Mass (kg)
RCS (m²)

Purposes: comms

External: N2YO · Heavens-Above · Gunter

§ Orbital elements

Epoch: 2026-09-20T15:50:06.066816Z

Period
94.27 min
Inclination
42.9976°
Eccentricity
0.0000995
Mean motion
15.27598924 rev/d
Perigee alt
482.3 km
Apogee alt
483.7 km
Semi-major
6,861.1 km
B*
4.3961e-4
RAAN
81.9976°
Arg perigee
267.5422°
Mean anomaly
92.5316°
Rev number
15,526

§ Raw data

STARLINK-310151 58521U 23191P   26263.65979244  .00011862  00000+0  43961-3 0  99952 58521  42.9976  81.9976 0000995 267.5422  92.5316 15.27598924155268

JSON: /api/v1/satellites/58521 · /tle

For live sub-satellite position, see the globe view (requires WebGL).

§ Visibility from observer

Set your observer location to see the next 7 days of passes ≥ 10°. The values pass through the URL so the page stays shareable.

No JS? Fill the form by hand. The geolocation button needs JavaScript.